TimeAST,TemperatureF,Dew PointF,Humidity,Sea Level PressureIn,VisibilityMPH,Wind Direction,Wind SpeedMPH,Gust SpeedMPH,PrecipitationIn,Events,Conditions,WindDirDegrees,DateUTC
12:50 AM,73.4,66.2,78,30.00,10.0,Calm,Calm,-,N/A,,Clear,0,2012-12-13 04:50:00
1:50 AM,69.8,64.4,83,30.00,10.0,ENE,5.8,-,N/A,,Clear,60,2012-12-13 05:50:00
2:50 AM,69.8,64.4,83,29.97,10.0,Calm,Calm,-,N/A,,Clear,0,2012-12-13 06:50:00
4:50 AM,71.6,64.4,78,29.95,10.0,ENE,5.8,-,N/A,,Clear,60,2012-12-13 08:50:00
6:50 AM,71.6,66.2,83,29.95,8.0,Calm,Calm,-,N/A,,Mostly Cloudy,0,2012-12-13 10:50:00
7:50 AM,71.6,66.2,83,29.97,10.0,Calm,Calm,-,N/A,,Mostly Cloudy,0,2012-12-13 11:50:00
8:50 AM,82.4,69.8,66,29.97,10.0,East,9.2,-,N/A,,Scattered Clouds,80,2012-12-13 12:50:00
9:58 AM,84.2,69.8,62,29.97,10.0,NE,11.5,-,N/A,,Mostly Cloudy,40,2012-12-13 13:58:00
10:50 AM,84.2,69.8,62,29.97,10.0,East,9.2,-,N/A,,Scattered Clouds,90,2012-12-13 14:50:00
11:50 AM,86.0,69.8,58,29.96,10.0,SE,9.2,-,N/A,,Mostly Cloudy,130,2012-12-13 15:50:00
12:50 PM,80.6,75.2,84,29.96,10.0,East,5.8,-,N/A,Rain,Light Rain,90,2012-12-13 16:50:00
1:50 PM,80.6,75.2,84,29.95,10.0,East,5.8,-,N/A,,Mostly Cloudy,90,2012-12-13 17:50:00
2:50 PM,80.6,75.2,84,29.91,10.0,SE,11.5,-,N/A,,Mostly Cloudy,130,2012-12-13 18:50:00
3:50 PM,80.6,73.4,79,29.91,10.0,East,11.5,-,N/A,,Mostly Cloudy,100,2012-12-13 19:50:00
4:50 PM,82.4,68.0,62,29.90,10.0,ESE,6.9,-,N/A,,Mostly Cloudy,110,2012-12-13 20:50:00
5:50 PM,80.6,73.4,79,29.91,10.0,Calm,Calm,-,N/A,,Mostly Cloudy,0,2012-12-13 21:50:00
6:50 PM,78.8,71.6,78,29.92,10.0,Calm,Calm,-,N/A,,Mostly Cloudy,0,2012-12-13 22:50:00
7:50 PM,77.0,73.4,89,29.93,10.0,Calm,Calm,-,N/A,,Partly Cloudy,0,2012-12-13 23:50:00
8:50 PM,75.2,71.6,89,29.93,10.0,Calm,Calm,-,N/A,,Partly Cloudy,0,2012-12-14 00:50:00
9:50 PM,75.2,71.6,89,29.96,10.0,Calm,Calm,-,N/A,,Mostly Cloudy,0,2012-12-14 01:50:00
10:50 PM,73.4,69.8,88,29.96,10.0,Calm,Calm,-,N/A,,Mostly Cloudy,0,2012-12-14 02:50:00
11:50 PM,73.4,69.8,88,29.94,10.0,Calm,Calm,-,N/A,,Mostly Cloudy,0,2012-12-14 03:50:00